METEOR 2-5 DEB, 38278

Orbit data source: Space-Track

METEOR 2-5 DEB, 38278 is space debris in LEO originally from a launch on Wed, 31 Oct 1979 UTC launched from the Plesetsk Missile And Space Complex (PKMTR). Debris objects in space refer to the collection of defunct objects orbiting the Earth. Examples of debris include non-operational satellites, rocket bodies, and fragments generated from explosions, collisions, or faulty payload assembly.

Loading next visibility...
Identifier
38278, 1979-095BY
Orbit
LEO
Country
Flag of CISCIS
Related business
Manufacturer
Unknown
Mission
Spacecraft
Bus & Motor
Unknown
Mass
Unknown
Launch date (UTC)
1979-10-31 (46 years ago)
Launch vehicle
Unknown
Launch site
Plesetsk Missile And Space Complex (PKMTR)
Object type
Payload
Rocket body
Debris
Shape & HBR
Unknown shape, 0.1 m
Radar Cross Section
Small (<0.1 m²)

Expand to show TLE details & history
Last TLE update: 3 weeks ago

TLE from 3 weeks ago
0 METEOR 2-5 DEB
1 38278U 79095BY  25275.08081154  .00006091  00000-0  21541-2 0  9997
2 38278  81.1705  33.3702 0003022 107.1457  70.0323 14.34536517723558
Epoch: 2025-10-02T01:56Z
TLE epoch observation values (Epoch: 2025-10-02T01:56:22.117Z)
Latitude
2.65583°
Longitude
172.8208°
Altitude
778.494 km
Speed
7.465 km/s
True Right ascension
14h 11m 50s
True Declination
2° 38' 24"
Sunlit
Object was in daylight at epoch
Visualization orbit readout
Latitude
Unknown
Longitude
Unknown
Altitude
Unknown
Speed
Unknown
Apparent Right ascension
Unknown
Apparent Declination
Unknown
Sunlit
N/A
Visualization observer readout
Local Sidereal Time
17:48:07
Azimuth
Unknown
Elevation
Unknown
Doppler factor
Unknown
Orbital elements
Apogee altitude
775.913 km
Perigee altitude
771.591 km
Semi-major axis
7,151.889 km
Eccentricity
0.0003
Inclination
81.1705°
RAAN
33.3702°
Arg. of periapsis
107.1457°
True anomaly
70.06485°
Mean anomaly
70.0323°
Eccentric anomaly
70.04858°
Mean motion
3.58849 °/min
Orbital period
100.32 mins
BSTAR
0.0021541
Loading maneuver chart data...
Computing Atmospheric mass density...
Loading historical data...
Loading historical data...
Loading historical data...
Loading historical data...
Loading historical data...
Loading historical data...
Loading historical data...

Documentation

Showing up to 5 results
|